Location: Warszawa
(52.2500°N, 21.0000°E)
Time: 14:40:17
(UTC+01:00)

Vanguard 2 - Pass Details

Date: 14 February 2023
Orbit: 553 x 2927 km, 32.9° (Epoch: 24 March)

Event Time Altitude Azimuth Distance (km) Brightness Sun altitude
Rises 18:34:38 0° 218° (SW) 3,974 11.7 -17.0°
Reaches altitude 10° 18:37:47 10° 203° (SSW) 3,345 11.0 -17.5°
Maximum altitude 18:44:05 22° 156° (SSE) 3,135 10.4 -18.4°
Enters shadow 18:49:03 17° 126° (SE) 3,927 10.6 -19.2°
Drops below altitude 10° 18:52:42 10° 114° (ESE) 4,757 - -19.7°
Sets 18:58:22 0° 102° (ESE) 6,168 - -20.6°
